AAL118 KLAX-KJFK

Flight info

Callsign AAL118
Flight time N/A
Altitude 33000
Route DOTSS2 CLEEE PKE HIPPI HMFRY RSK KD45U TODDE HLC TKO PWE MZV JOT GIJ EVOTE DAFLU J70 JHW Q476 WLKES PUCKY1
Aircraft B772/H-SDE2E3FGHIJ5LORVWXY/LB1D1

Departure

Time 2026-05-05 16:07
Airport Los Angeles International Airport (KLAX)

Arrival

Time N/A
Airport John F. Kennedy International Airport (KJFK)
Time Latitude Longitude Altitude Speed Heading
2026-05-05 15:33 33.93944 -118.40638 97 ft 0 kts 344°
2026-05-05 15:57 33.93938 -118.40636 98 ft 4 kts 347°
2026-05-05 15:57 33.93914 -118.40636 96 ft 4 kts 26°
2026-05-05 15:57 33.93896 -118.40655 100 ft 4 kts 75°
2026-05-05 15:57 33.93894 -118.40664 99 ft 0 kts 83°
2026-05-05 16:00 33.93898 -118.40626 101 ft 7 kts 83°
2026-05-05 16:01 33.93898 -118.40568 101 ft 7 kts 110°
2026-05-05 16:01 33.93859 -118.40532 100 ft 7 kts 145°
2026-05-05 16:01 33.93836 -118.40480 93 ft 8 kts 99°
2026-05-05 16:01 33.93839 -118.40388 100 ft 14 kts 84°
2026-05-05 16:02 33.93852 -118.40253 102 ft 19 kts 83°
2026-05-05 16:02 33.93868 -118.40096 104 ft 19 kts 83°
2026-05-05 16:02 33.93885 -118.39938 103 ft 19 kts 83°
2026-05-05 16:02 33.93900 -118.39781 102 ft 19 kts 83°
2026-05-05 16:03 33.93917 -118.39624 99 ft 19 kts 83°
2026-05-05 16:03 33.93933 -118.39469 99 ft 19 kts 83°
2026-05-05 16:03 33.93949 -118.39312 98 ft 19 kts 83°
2026-05-05 16:03 33.93965 -118.39155 101 ft 19 kts 83°
2026-05-05 16:04 33.93980 -118.38998 98 ft 19 kts 83°
2026-05-05 16:04 33.93996 -118.38840 98 ft 19 kts 83°
2026-05-05 16:04 33.94013 -118.38683 102 ft 19 kts 83°
2026-05-05 16:04 33.94029 -118.38533 100 ft 15 kts 83°
2026-05-05 16:05 33.94042 -118.38412 102 ft 10 kts 83°
2026-05-05 16:05 33.94034 -118.38353 101 ft 3 kts 123°
2026-05-05 16:05 33.94017 -118.38337 103 ft 3 kts 150°
2026-05-05 16:05 33.93997 -118.38326 103 ft 5 kts 159°
2026-05-05 16:06 33.93951 -118.38355 105 ft 3 kts 252°
2026-05-05 16:06 33.93950 -118.38361 106 ft 4 kts 259°
2026-05-05 16:06 33.93923 -118.38609 103 ft 65 kts 263°
2026-05-05 16:06 33.93839 -118.39447 102 ft 134 kts 263°
2026-05-05 16:07 33.93712 -118.40722 386 ft 166 kts 263°
2026-05-05 16:07 33.93552 -118.42068 1364 ft 154 kts 260°
2026-05-05 16:07 33.93431 -118.43386 2119 ft 161 kts 266°
2026-05-05 16:07 33.93327 -118.44750 2875 ft 165 kts 266°
2026-05-05 16:08 33.93215 -118.46130 3635 ft 167 kts 263°
2026-05-05 16:08 33.93075 -118.47523 4344 ft 170 kts 264°
2026-05-05 16:08 33.92763 -118.48886 4889 ft 176 kts 232°
2026-05-05 16:08 33.91784 -118.49884 5138 ft 196 kts 222°
2026-05-05 16:09 33.90761 -118.51088 5333 ft 216 kts 227°
2026-05-05 16:09 33.89610 -118.52398 5604 ft 238 kts 224°
2026-05-05 16:09 33.88323 -118.53804 5952 ft 261 kts 224°
2026-05-05 16:09 33.86938 -118.55269 6571 ft 269 kts 218°
2026-05-05 16:10 33.85205 -118.56170 7100 ft 281 kts 186°
2026-05-05 16:10 33.83278 -118.55863 7896 ft 280 kts 166°
2026-05-05 16:10 33.81380 -118.55277 8569 ft 289 kts 168°
2026-05-05 16:10 33.79418 -118.54719 9468 ft 291 kts 168°
2026-05-05 16:11 33.77438 -118.54172 10302 ft 294 kts 169°
2026-05-05 16:11 33.70862 -118.51985 11246 ft 356 kts 148°
2026-05-05 16:12 33.69112 -118.49862 11843 ft 364 kts 121°
2026-05-05 16:12 33.67351 -118.44053 13779 ft 374 kts 108°
2026-05-05 16:13 33.64868 -118.35034 16425 ft 386 kts 102°
2026-05-05 16:13 33.64456 -118.31840 17294 ft 390 kts 95°
2026-05-05 16:13 33.64356 -118.28559 18127 ft 395 kts 90°
2026-05-05 16:14 33.64411 -118.21895 19720 ft 403 kts 89°
2026-05-05 16:14 33.64459 -118.15105 21303 ft 411 kts 90°
2026-05-05 16:15 33.64466 -118.08211 22921 ft 421 kts 90°
2026-05-05 16:15 33.64441 -118.01101 24242 ft 431 kts 91°
2026-05-05 16:16 33.64440 -117.93795 25270 ft 445 kts 90°
2026-05-05 16:16 33.64433 -117.86272 26306 ft 456 kts 91°
2026-05-05 16:17 33.64655 -117.78575 27326 ft 467 kts 84°
2026-05-05 16:17 33.65228 -117.74721 27813 ft 473 kts 77°
2026-05-05 16:18 33.66789 -117.66946 28853 ft 485 kts 77°
2026-05-05 16:18 33.67580 -117.62987 29327 ft 490 kts 77°
2026-05-05 16:18 33.69143 -117.54960 30151 ft 498 kts 78°
2026-05-05 16:19 33.69921 -117.50889 30468 ft 502 kts 78°
2026-05-05 16:19 33.70701 -117.46787 30792 ft 506 kts 78°
2026-05-05 16:19 33.72279 -117.38469 31318 ft 515 kts 78°
2026-05-05 16:20 33.73881 -117.30023 31884 ft 521 kts 78°
2026-05-05 16:20 33.75054 -117.21394 32640 ft 523 kts 88°
2026-05-05 16:21 33.75008 -117.12705 33026 ft 527 kts 95°
2026-05-05 16:22 33.74642 -116.99546 33031 ft 522 kts 94°
2026-05-05 16:23 33.74261 -116.82083 33021 ft 524 kts 95°
2026-05-05 16:23 33.73946 -116.68925 32981 ft 526 kts 95°
2026-05-05 16:24 33.73730 -116.60151 32953 ft 525 kts 95°
2026-05-05 16:25 33.73388 -116.47020 32951 ft 530 kts 96°
2026-05-05 16:25 33.72957 -116.33603 32952 ft 540 kts 95°
2026-05-05 16:26 33.72546 -116.15607 32936 ft 536 kts 96°
2026-05-05 16:27 33.72994 -116.06646 32939 ft 541 kts 84°
2026-05-05 16:27 33.74782 -115.97853 32936 ft 544 kts 73°
2026-05-05 16:28 33.77243 -115.89262 32919 ft 544 kts 73°
2026-05-05 16:28 33.79700 -115.80639 32939 ft 546 kts 74°
2026-05-05 16:29 33.82114 -115.71961 32936 ft 548 kts 74°
2026-05-05 16:29 33.84509 -115.63245 32909 ft 549 kts 75°
2026-05-05 16:30 33.86953 -115.54545 32939 ft 548 kts 75°
2026-05-05 16:30 33.89332 -115.45758 32930 ft 555 kts 75°
2026-05-05 16:31 33.91703 -115.36939 32931 ft 558 kts 75°
2026-05-05 16:31 33.94104 -115.28067 32894 ft 557 kts 75°
2026-05-05 16:32 33.96183 -115.20792 32906 ft 552 kts 75°
2026-05-05 16:32 33.98550 -115.11891 32915 ft 559 kts 76°
2026-05-05 16:33 34.00903 -115.02940 32965 ft 564 kts 76°
2026-05-05 16:33 34.02107 -114.98443 33495 ft 560 kts 75°
2026-05-05 16:33 34.03310 -114.93979 33960 ft 559 kts 75°
2026-05-05 16:34 34.04511 -114.89519 34255 ft 561 kts 75°
2026-05-05 16:34 34.05713 -114.85040 34565 ft 561 kts 75°
2026-05-05 16:34 34.06909 -114.80566 34902 ft 561 kts 75°
2026-05-05 16:34 34.08109 -114.76064 34901 ft 566 kts 75°
2026-05-05 16:35 34.10706 -114.67130 34888 ft 561 kts 69°
2026-05-05 16:35 34.14263 -114.58821 34894 ft 562 kts 62°
2026-05-05 16:36 34.18050 -114.50552 34894 ft 564 kts 63°
2026-05-05 16:36 34.19939 -114.46378 35033 ft 568 kts 63°
2026-05-05 16:36 34.21829 -114.42228 35745 ft 554 kts 60°
2026-05-05 16:37 34.23736 -114.38236 36228 ft 545 kts 65°
2026-05-05 16:37 34.25320 -114.34091 36219 ft 545 kts 67°
2026-05-05 16:37 34.28849 -114.25846 36455 ft 557 kts 62°
2026-05-05 16:38 34.30736 -114.21748 36698 ft 558 kts 62°
2026-05-05 16:38 34.32621 -114.17647 37074 ft 556 kts 63°
2026-05-05 16:38 34.34476 -114.13548 37517 ft 553 kts 63°
2026-05-05 16:38 34.36296 -114.09463 37873 ft 552 kts 63°
2026-05-05 16:39 34.38098 -114.05373 38164 ft 552 kts 64°
2026-05-05 16:39 34.39900 -114.01257 38358 ft 554 kts 64°
2026-05-05 16:39 34.41703 -113.97132 38597 ft 554 kts 64°
2026-05-05 16:39 34.43503 -113.93011 38800 ft 554 kts 64°
2026-05-05 16:40 34.47094 -113.84799 38844 ft 554 kts 64°
2026-05-05 16:40 34.50683 -113.76582 38875 ft 550 kts 64°
2026-05-05 16:41 34.54282 -113.68317 38869 ft 551 kts 64°
2026-05-05 16:41 34.57933 -113.60199 38867 ft 553 kts 61°
2026-05-05 16:42 34.61879 -113.52162 38868 ft 555 kts 60°
2026-05-05 16:42 34.65880 -113.44129 38884 ft 556 kts 60°
2026-05-05 16:43 34.69848 -113.36070 38866 ft 555 kts 61°
2026-05-05 16:43 34.73784 -113.27995 38852 ft 555 kts 61°
2026-05-05 16:44 34.77707 -113.19917 38861 ft 555 kts 61°
2026-05-05 16:44 34.81629 -113.11829 38851 ft 555 kts 61°
2026-05-05 16:45 34.85547 -113.03735 38843 ft 555 kts 61°
2026-05-05 16:45 34.89440 -112.95673 38846 ft 555 kts 61°
2026-05-05 16:46 34.93352 -112.87555 38842 ft 556 kts 61°
2026-05-05 16:46 34.97258 -112.79428 38849 ft 556 kts 61°
2026-05-05 16:47 35.01169 -112.71273 38834 ft 557 kts 61°
2026-05-05 16:47 35.05077 -112.63105 38875 ft 558 kts 61°
2026-05-05 16:48 35.08991 -112.54906 38845 ft 558 kts 61°
2026-05-05 16:48 35.12894 -112.46710 38845 ft 556 kts 62°
2026-05-05 16:49 35.16747 -112.38599 38947 ft 555 kts 62°
2026-05-05 16:49 35.20615 -112.30438 39001 ft 555 kts 62°
2026-05-05 16:50 35.24483 -112.22256 39030 ft 555 kts 62°
2026-05-05 16:50 35.28346 -112.14066 39028 ft 556 kts 62°
2026-05-05 16:51 35.32206 -112.05864 39006 ft 556 kts 62°
2026-05-05 16:51 35.36063 -111.97648 38947 ft 557 kts 62°
2026-05-05 16:52 35.39919 -111.89413 38912 ft 557 kts 62°
2026-05-05 16:52 35.43773 -111.81164 38845 ft 557 kts 62°
2026-05-05 16:53 35.47600 -111.72953 38833 ft 558 kts 62°
2026-05-05 16:53 35.51442 -111.64689 38835 ft 558 kts 62°
2026-05-05 16:54 35.55286 -111.56401 38819 ft 558 kts 62°
2026-05-05 16:54 35.59018 -111.48070 38820 ft 555 kts 68°
2026-05-05 16:55 35.62172 -111.39408 38831 ft 554 kts 70°
2026-05-05 16:55 35.65231 -111.30720 38822 ft 554 kts 70°
2026-05-05 16:56 35.68317 -111.22024 38827 ft 555 kts 69°
2026-05-05 16:56 35.71425 -111.13342 38813 ft 555 kts 69°
2026-05-05 16:57 35.74540 -111.04643 38825 ft 556 kts 69°
2026-05-05 16:57 35.77653 -110.95918 38839 ft 557 kts 69°
2026-05-05 16:58 35.80761 -110.87174 38833 ft 557 kts 69°
2026-05-05 16:58 35.83846 -110.78469 38812 ft 558 kts 69°
2026-05-05 16:59 35.86944 -110.69700 38829 ft 558 kts 69°
2026-05-05 16:59 35.90043 -110.60907 38853 ft 559 kts 69°
2026-05-05 17:00 35.93134 -110.52112 38826 ft 558 kts 69°
2026-05-05 17:00 35.96208 -110.43338 38814 ft 556 kts 70°
2026-05-05 17:01 35.99272 -110.34569 38825 ft 556 kts 70°
2026-05-05 17:01 36.02328 -110.25794 38824 ft 556 kts 70°
2026-05-05 17:02 36.05365 -110.17052 38823 ft 557 kts 70°
2026-05-05 17:02 36.08413 -110.08251 38814 ft 558 kts 70°
2026-05-05 17:03 36.11472 -109.99393 38810 ft 561 kts 70°
2026-05-05 17:03 36.14539 -109.90487 38796 ft 563 kts 70°
2026-05-05 17:04 36.17602 -109.81567 38820 ft 564 kts 70°
2026-05-05 17:04 36.20662 -109.72629 38815 ft 564 kts 69°
2026-05-05 17:05 36.23724 -109.63659 38811 ft 565 kts 70°
2026-05-05 17:05 36.26762 -109.54730 38815 ft 566 kts 70°
2026-05-05 17:06 36.29815 -109.45736 38792 ft 566 kts 70°
2026-05-05 17:06 36.32860 -109.36733 38818 ft 565 kts 69°
2026-05-05 17:07 36.35896 -109.27736 38823 ft 565 kts 69°
2026-05-05 17:07 36.38923 -109.18734 38839 ft 565 kts 70°
2026-05-05 17:08 36.41939 -109.09739 38801 ft 564 kts 69°
2026-05-05 17:08 36.44923 -109.00812 38812 ft 561 kts 69°
2026-05-05 17:09 36.47909 -108.91850 38799 ft 561 kts 70°
2026-05-05 17:09 36.50886 -108.82888 38804 ft 560 kts 70°
2026-05-05 17:10 36.53851 -108.73937 38787 ft 560 kts 70°
2026-05-05 17:10 36.56814 -108.64965 38810 ft 560 kts 70°
2026-05-05 17:11 36.59766 -108.55999 38850 ft 560 kts 70°
2026-05-05 17:11 36.62711 -108.47026 38884 ft 560 kts 70°
2026-05-05 17:12 36.65652 -108.38038 38907 ft 560 kts 70°
2026-05-05 17:12 36.68569 -108.29098 38946 ft 561 kts 70°
2026-05-05 17:13 36.71500 -108.20085 38936 ft 561 kts 70°
2026-05-05 17:13 36.74427 -108.11057 38951 ft 561 kts 70°